Theta_e
325 325 324 324 324 323 322 321 319 319 317 316 318 320 320 321 321 321 321 321 320 321 320 320 320 319 319 319 319 320 320 321 322 322 322 322 323 324 325 325 326 327 329 330 329 329 329 330 329 329 329 329 327 325 325 324 324 324 326 328 329 327 325
326 326 325 324 324 323 322 321 320 319 318 316 317 318 319 320 320 320 321 321 320 320 320 320 319 319 319 318 319 319 320 320 321 321 321 321 322 323 323 323 325 326 327 328 328 329 329 330 329 329 329 328 328 327 327 327 326 326 327 328 328 328 326
327 327 325 325 325 324 323 322 321 320 318 317 317 317 317 319 319 319 320 321 320 320 319 319 318 319 318 318 318 319 319 320 320 320 320 321 321 321 321 322 323 324 325 326 327 327 328 328 329 329 329 329 328 328 328 328 327 327 328 328 328 328 326
328 328 326 325 325 324 324 323 321 320 318 317 317 317 316 317 318 318 319 320 320 320 319 318 318 318 318 318 317 318 319 319 319 319 319 319 320 320 320 320 321 322 324 324 325 325 326 327 328 328 329 329 329 328 328 329 328 328 328 328 327 327 327
328 327 327 326 325 324 324 323 322 320 319 318 317 317 316 316 317 318 319 320 320 319 318 318 318 317 317 317 317 318 318 318 318 318 318 318 318 318 318 319 319 320 321 322 323 324 325 326 326 327 328 328 329 329 329 328 328 328 328 328 327 326 327
326 326 327 326 325 325 324 323 323 321 320 319 317 317 317 316 317 317 317 319 319 318 318 317 317 317 317 316 316 317 316 317 317 316 317 317 317 317 317 318 318 318 319 320 321 322 323 325 325 326 327 327 328 329 328 328 327 328 328 328 328 327 327
325 326 326 326 325 324 322 323 323 322 321 319 318 318 317 316 317 316 316 318 319 318 318 317 316 318 317 315 316 316 316 316 316 315 316 316 316 316 316 316 317 317 318 319 319 320 321 322 324 324 324 325 327 327 327 328 328 328 328 328 329 328 328
326 327 327 327 325 322 321 323 323 323 321 320 319 319 317 316 317 317 315 317 318 318 317 316 316 317 316 315 316 317 316 316 317 317 317 316 316 317 316 316 316 317 317 318 318 319 319 319 321 322 324 325 325 326 327 327 328 328 328 328 329 329 329
326 327 326 325 324 322 321 322 323 322 321 320 320 318 317 316 317 317 316 315 317 317 317 317 317 318 317 315 315 316 316 316 317 317 316 317 318 317 316 316 316 316 317 317 318 318 319 319 319 320 322 324 325 325 326 326 327 327 327 328 329 329 328
326 327 327 324 324 323 322 322 323 323 320 320 320 319 318 317 316 316 316 316 316 316 317 317 317 317 317 317 317 316 316 316 316 316 316 317 318 317 316 317 317 316 316 317 317 317 318 318 319 319 319 321 323 325 326 326 326 327 327 327 328 328 328
327 328 328 327 326 325 324 323 323 323 322 320 321 320 318 317 316 316 315 316 316 316 316 317 316 316 316 317 317 317 316 316 316 316 316 316 316 317 317 317 317 316 316 316 317 317 317 318 319 320 319 319 322 324 325 326 326 325 326 326 327 327 327
325 326 326 327 327 326 325 324 323 323 323 321 320 320 319 317 316 316 315 316 316 316 316 316 315 316 316 316 316 316 317 317 317 317 317 316 316 317 317 316 316 316 316 316 316 317 317 317 318 319 320 319 320 322 324 324 325 324 324 325 326 326 326
325 326 326 325 326 326 325 325 325 324 323 321 320 320 319 317 316 316 316 315 316 316 316 316 315 316 316 316 316 316 316 316 317 317 317 317 317 316 317 317 316 316 316 317 317 316 317 318 317 317 319 319 319 320 322 323 324 324 324 324 325 326 326
325 326 326 325 325 326 325 326 326 326 324 323 321 319 319 318 317 316 316 316 315 315 315 315 315 315 316 316 316 316 316 316 316 316 317 317 317 316 317 317 316 316 317 317 317 316 317 317 317 317 318 319 319 320 321 322 324 324 323 323 325 325 325
327 327 327 327 326 326 325 326 327 326 325 324 322 320 319 319 318 316 316 316 316 316 315 315 315 315 315 315 315 315 316 316 316 316 316 316 317 316 316 316 316 316 317 317 317 317 317 317 317 317 318 318 318 318 320 321 323 323 322 322 324 325 325
326 326 327 328 327 326 325 326 326 326 326 324 322 320 319 319 318 317 317 316 316 316 315 316 315 315 315 315 315 315 315 316 316 316 315 316 316 316 316 316 316 315 316 317 317 317 317 317 318 318 319 319 319 319 320 321 322 323 323 323 323 324 325
325 325 326 326 326 326 325 325 326 326 326 324 322 320 319 319 318 317 317 316 316 316 315 315 315 315 316 315 314 314 314 314 315 315 315 315 315 315 316 316 316 316 316 317 317 317 318 319 319 319 319 320 321 321 321 321 322 322 323 323 323 323 324
325 325 325 325 326 327 326 325 325 326 326 323 322 321 319 320 319 318 317 316 316 316 315 315 315 315 315 315 314 314 314 314 315 314 314 315 315 314 315 316 316 315 315 316 317 317 318 319 319 319 320 320 320 320 320 321 321 322 323 323 322 322 323
326 326 326 325 325 326 326 325 325 326 325 322 322 322 320 319 319 318 317 316 315 315 315 315 315 315 315 315 314 312 312 312 314 314 314 314 315 314 315 316 315 315 315 315 316 317 318 318 318 319 319 320 320 320 320 321 321 322 322 322 322 322 322
326 326 326 325 325 326 327 327 326 325 323 322 322 323 321 320 319 318 317 316 316 316 316 315 315 316 316 315 314 312 310 308 309 313 314 314 314 314 314 316 316 315 315 315 315 317 317 317 317 317 318 318 319 320 320 321 321 321 321 322 322 322 323
326 326 324 323 323 325 326 324 323 322 323 323 322 321 321 320 320 318 317 317 316 317 316 315 316 316 316 316 315 315 315 309 306 310 314 313 314 315 315 315 315 314 315 315 315 315 315 315 315 315 316 316 317 318 318 317 317 317 318 320 321 322 322
326 326 324 323 323 324 323 323 323 323 323 323 322 321 321 320 320 319 318 317 317 317 317 316 316 316 316 316 315 315 316 312 305 308 313 314 313 314 314 314 314 314 314 315 315 314 314 315 315 315 315 315 316 316 316 316 315 314 314 315 317 319 321
325 325 325 325 324 324 324 324 324 323 323 322 322 322 322 321 321 320 318 318 317 317 317 317 317 317 316 316 316 315 316 313 305 305 311 313 313 313 313 313 313 314 314 314 314 314 314 315 315 315 316 316 316 316 317 316 315 314 314 313 314 315 317
323 323 323 324 323 323 323 323 322 322 322 322 322 322 321 321 321 321 320 319 318 317 318 318 317 317 317 316 316 316 315 311 304 302 307 311 313 313 313 313 313 313 314 314 314 314 315 315 315 316 316 316 316 317 317 316 316 315 315 315 315 315 315
323 322 322 322 323 322 322 322 322 322 322 321 321 321 321 321 321 321 320 320 319 318 318 318 317 317 317 316 316 316 314 310 305 303 305 310 312 312 312 312 312 313 313 314 314 314 315 315 316 316 316 315 316 317 317 316 316 316 316 316 316 316 315
322 322 321 321 321 322 321 321 321 321 321 321 321 321 321 321 320 321 320 320 319 319 318 319 318 318 317 317 316 316 313 309 306 303 304 308 311 311 311 311 312 312 313 314 315 314 314 315 315 315 315 313 313 315 316 317 317 317 317 316 317 317 317
322 322 321 321 321 321 321 321 321 321 321 321 320 320 320 320 320 320 320 319 319 319 319 319 319 318 318 317 316 315 312 310 307 304 304 308 311 311 311 311 311 312 313 314 314 314 314 314 314 313 313 312 311 312 313 316 316 316 317 317 316 317 317
321 321 321 320 320 321 321 321 321 320 321 320 320 320 320 320 320 320 320 319 319 319 319 319 319 318 318 317 316 315 313 311 308 305 306 309 312 312 312 312 312 312 312 313 314 314 313 313 312 311 310 309 309 309 310 313 315 316 317 317 316 316 316
321 321 321 321 321 321 320 321 321 320 320 320 319 320 319 319 320 320 319 319 319 319 319 319 319 319 318 318 317 315 313 312 310 308 308 310 312 312 312 312 311 312 313 313 313 313 312 311 310 309 309 307 305 306 307 310 314 316 316 316 316 316 316
321 321 321 321 321 321 320 320 321 321 320 320 320 320 319 319 319 319 319 319 319 319 319 319 319 319 319 318 318 316 314 312 311 309 309 310 311 312 312 312 312 312 312 312 312 311 311 311 310 309 308 305 302 304 307 308 312 315 315 316 316 316 316
321 321 321 321 321 321 321 321 321 321 320 320 320 320 320 320 320 320 320 319 319 318 318 318 318 318 318 318 318 316 314 313 312 310 309 311 312 312 312 312 312 312 312 311 311 311 311 310 310 309 308 303 301 304 307 309 310 313 314 315 316 316 316
321 321 321 321 320 320 320 321 321 321 321 321 321 321 321 320 320 320 319 319 319 318 318 318 318 318 318 318 318 317 315 314 313 312 310 310 311 312 313 312 312 312 312 311 311 311 311 310 310 309 307 303 301 304 307 309 310 311 312 313 314 315 315
321 321 321 321 321 320 320 319 319 320 321 321 321 321 321 321 320 320 320 320 320 319 319 319 318 318 318 318 318 318 317 315 315 313 311 310 311 312 312 312 311 311 311 312 311 311 310 310 310 309 306 303 301 303 306 308 309 310 310 310 311 312 313
321 321 321 322 321 321 320 319 318 319 321 321 322 322 322 321 321 320 320 320 319 319 319 319 319 319 319 318 318 318 318 317 316 314 311 310 311 312 312 311 311 311 311 311 311 311 311 311 310 308 304 301 302 304 306 308 309 310 310 310 310 310 311
321 321 322 322 322 321 321 319 318 319 319 321 322 322 322 322 321 321 321 320 320 319 319 319 319 319 319 319 319 318 318 318 317 315 313 311 310 311 310 311 311 312 312 312 312 312 311 309 308 305 302 302 304 306 307 308 309 310 310 310 310 309 309
322 322 322 322 322 322 321 320 319 318 319 320 321 321 321 322 321 321 321 321 321 320 320 320 320 320 320 319 319 319 319 318 317 316 315 314 312 310 309 310 312 312 312 312 312 310 309 308 307 305 305 306 307 307 308 309 311 311 310 310 310 310 310
321 322 322 322 322 322 322 321 321 320 319 320 320 321 322 322 322 322 321 321 321 320 321 321 320 320 320 320 319 319 319 318 318 317 316 315 314 311 309 309 310 310 311 310 309 308 309 310 309 307 307 308 308 308 309 310 311 312 311 311 312 313 313
Wind_Speed
6 5 6 5 3 3 5 7 10 12 12 12 10 8 8 8 6 6 6 6 8 8 8 10 10 8 9 10 11 12 11 10 10 11 13 12 12 14 14 11 12 13 10 8 8 7 5 7 8 6 5 5 4 4 5 6 7 8 8 9 11 13 14
5 4 4 4 4 4 4 4 7 11 13 13 13 11 10 10 9 7 6 5 7 7 7 10 9 9 10 10 9 11 13 12 10 10 11 10 11 14 15 11 12 13 12 11 10 8 7 7 7 7 6 6 7 6 6 7 8 8 9 9 10 11 13
6 5 5 5 6 5 4 3 5 8 10 11 14 13 11 11 12 11 8 5 6 7 7 9 9 10 11 10 8 10 12 12 10 10 9 8 9 12 12 11 11 11 12 14 13 12 10 8 8 8 8 9 10 7 6 7 8 8 9 10 10 11 13
6 7 7 6 5 5 5 6 5 6 8 10 12 12 12 11 11 11 10 7 6 7 7 8 9 10 12 10 8 9 10 10 9 9 8 6 8 10 9 10 10 8 9 13 15 13 12 10 10 10 9 10 11 9 7 8 8 9 10 10 11 12 14
6 7 7 6 5 4 6 7 5 4 7 9 9 11 12 11 10 10 10 7 7 7 8 9 8 9 12 10 9 9 10 9 8 8 7 6 8 10 9 9 11 8 6 9 11 12 13 13 12 11 11 10 12 11 9 9 8 9 10 10 11 12 14
7 7 7 7 6 5 6 6 5 3 5 7 9 13 13 10 11 12 10 8 7 8 9 10 9 10 11 10 10 10 9 9 10 8 7 7 7 8 9 9 9 9 8 8 9 10 12 13 13 13 12 10 11 12 11 11 10 8 8 9 9 10 13
7 7 7 7 6 6 6 6 6 5 2 4 9 13 11 8 11 13 10 9 7 6 9 10 8 10 11 9 10 11 10 10 10 9 9 9 7 7 8 8 7 9 9 8 10 11 11 11 12 14 15 13 12 12 12 11 11 10 9 8 8 8 10
6 7 6 6 6 7 7 5 7 7 2 2 8 12 10 8 10 13 12 9 7 7 9 10 8 10 12 9 8 11 10 9 10 11 10 9 9 10 9 8 8 7 7 7 10 11 11 12 11 12 14 15 15 13 12 11 9 10 11 9 8 8 8
6 8 8 8 7 7 7 5 7 7 3 2 6 11 12 9 9 13 14 11 8 8 8 8 8 9 11 11 9 10 10 9 10 9 9 9 10 12 11 9 10 8 7 9 10 9 9 11 12 11 10 12 15 15 14 13 11 9 9 8 9 9 8
7 8 8 8 7 6 8 7 6 8 6 2 4 9 12 9 7 12 15 12 9 9 9 8 9 9 10 11 10 10 11 11 10 9 9 10 10 11 10 10 11 10 9 10 10 10 9 9 11 12 11 10 11 14 15 14 14 11 9 9 10 11 10
7 7 8 8 8 7 8 7 7 9 7 3 2 8 12 8 5 10 14 13 11 12 10 9 12 12 10 11 11 10 10 12 12 10 11 11 11 11 11 10 10 10 10 12 13 13 11 9 8 10 13 11 9 11 13 14 16 14 11 9 9 11 12
7 7 7 8 9 9 9 9 8 9 9 5 1 6 12 9 4 9 12 10 11 14 12 12 15 13 10 12 13 12 10 11 11 11 13 12 11 11 11 10 10 9 10 14 16 15 12 10 8 9 11 12 10 10 11 14 16 16 13 12 12 13 14
7 8 9 9 9 9 9 10 9 9 11 8 1 4 9 8 4 9 11 8 9 11 12 14 16 13 10 13 15 14 12 11 11 11 12 13 12 12 12 11 10 8 10 13 16 16 13 11 11 10 10 12 11 10 10 12 15 17 16 13 13 12 13
9 10 11 11 11 10 10 11 10 11 11 9 6 4 5 7 8 11 11 9 7 7 8 11 12 11 11 13 14 15 15 14 12 10 11 12 12 12 13 13 11 8 9 13 16 17 15 13 12 11 10 11 11 10 10 12 14 17 18 14 11 10 9
11 12 12 13 12 11 11 11 11 12 11 11 10 5 2 7 10 9 10 9 8 9 9 8 10 12 13 13 14 14 14 15 15 13 11 11 12 13 13 14 13 10 9 12 15 17 16 12 10 10 11 13 13 11 10 12 14 17 18 16 13 11 8
12 13 12 13 14 12 11 11 12 12 11 11 11 8 5 5 7 7 9 10 9 7 7 10 12 13 13 13 12 12 13 15 16 15 13 12 13 13 12 13 13 12 9 10 14 16 14 12 10 10 11 13 13 12 11 12 14 16 17 17 15 12 10
13 13 12 13 14 12 11 12 12 11 11 11 10 9 5 4 8 9 7 9 10 5 8 14 13 11 13 14 13 12 12 13 14 16 15 14 14 13 12 13 14 12 10 10 14 15 14 12 11 11 11 11 10 10 11 12 13 14 15 16 16 14 13
14 14 13 12 12 12 11 11 11 10 11 11 9 9 7 5 10 11 7 10 12 8 11 15 12 11 14 15 14 12 12 13 14 16 16 14 14 13 12 13 14 13 11 11 13 14 15 16 14 12 12 12 12 12 13 13 13 12 13 15 16 15 14
12 12 13 13 12 12 11 11 10 10 11 9 8 10 11 8 8 9 7 10 11 9 10 11 10 13 16 16 15 13 13 14 13 13 15 14 14 14 13 13 14 14 12 12 12 14 16 18 17 16 14 12 12 12 12 12 12 12 13 13 14 15 14
11 11 12 12 12 11 11 11 10 10 9 8 8 11 12 8 7 9 9 10 11 11 13 12 8 11 17 19 20 19 21 19 13 11 13 14 14 14 13 14 14 14 14 14 14 15 17 19 19 19 17 15 13 12 12 12 12 13 13 12 12 12 13
10 11 11 10 9 9 9 9 9 8 8 9 10 12 11 9 9 11 11 12 11 10 12 13 10 11 18 22 24 24 26 25 18 12 12 13 13 13 14 14 13 13 15 15 15 17 18 19 19 19 18 17 16 16 16 16 16 16 15 14 13 12 13
9 9 9 8 7 8 8 7 7 8 8 10 12 12 11 10 10 12 12 12 11 10 13 14 13 14 18 22 25 26 25 26 21 13 10 12 13 12 13 13 12 13 15 16 17 18 17 16 17 18 18 17 17 18 19 18 18 17 17 17 17 14 14
8 8 8 7 6 7 7 7 8 9 8 9 11 11 12 12 12 12 12 10 10 13 15 15 16 17 18 21 23 23 24 26 23 15 12 11 12 12 13 13 13 13 15 17 18 16 14 14 16 17 18 18 19 18 18 17 17 17 17 17 17 16 17
9 9 9 9 9 8 8 9 10 11 11 11 11 12 13 14 13 14 13 11 11 14 15 16 18 19 19 20 21 22 24 25 22 16 11 9 10 13 14 14 14 14 15 17 17 15 13 14 15 16 17 19 19 17 15 15 15 15 16 16 17 17 18
10 9 9 10 11 10 9 10 11 12 13 13 13 13 13 14 14 15 15 15 15 15 16 17 18 18 19 21 21 21 23 24 21 17 13 11 12 12 13 14 14 15 15 16 16 15 12 13 15 15 17 20 19 15 12 12 13 14 16 17 18 18 18
11 10 11 11 11 11 11 12 12 13 14 14 14 14 15 15 15 16 16 17 17 17 17 18 18 18 20 21 20 21 22 22 21 18 16 14 11 9 11 14 15 15 15 15 16 15 13 14 15 16 19 23 21 17 14 12 12 14 16 18 19 19 17
11 11 12 12 12 12 13 14 14 14 15 15 15 15 16 17 17 18 17 17 17 18 18 19 19 20 21 20 20 20 20 20 19 18 16 11 6 7 12 16 18 17 16 15 17 17 16 17 18 20 23 25 25 23 19 16 15 15 16 18 19 19 17
12 12 13 13 13 14 15 15 16 16 16 17 17 17 17 18 18 19 18 17 17 18 18 19 21 21 21 20 19 18 19 19 19 17 13 7 4 7 12 16 19 19 16 15 18 19 19 19 20 22 24 26 26 26 23 19 17 15 16 18 19 20 18
13 14 14 14 15 16 16 17 18 19 19 18 19 19 18 19 19 19 18 17 18 19 19 19 21 22 21 21 20 19 19 19 18 17 14 9 8 10 12 15 19 19 16 16 20 22 21 20 21 23 25 27 27 26 23 20 17 15 16 17 18 19 19
15 16 15 15 15 16 17 18 18 18 19 20 20 20 20 19 19 19 18 18 19 20 20 21 23 22 21 21 20 20 19 19 18 17 14 12 12 12 13 14 16 18 18 19 22 23 22 22 23 24 26 29 29 26 23 20 18 17 16 16 17 18 17
15 15 14 14 15 15 16 18 18 19 20 20 20 20 19 19 19 19 19 20 21 21 20 21 23 22 22 22 21 20 19 18 18 17 14 12 12 13 13 13 14 18 21 22 23 23 22 22 23 24 27 30 29 26 22 19 18 18 19 19 19 19 18
17 17 17 18 18 18 19 20 20 20 21 21 21 21 20 21 22 21 21 22 23 23 22 22 22 22 22 23 22 20 18 18 18 16 15 13 12 13 15 15 15 18 21 22 21 20 20 21 24 27 29 30 28 25 22 19 18 20 22 23 23 23 23
19 18 17 17 18 19 19 20 20 21 21 22 22 22 22 22 22 20 20 21 21 21 21 21 22 23 24 23 22 21 19 19 18 17 15 14 12 12 14 15 17 18 18 18 19 20 22 25 27 29 30 30 28 25 22 21 20 21 24 26 27 28 26
19 18 17 18 19 20 20 18 18 19 21 22 22 23 23 23 23 23 23 23 23 21 20 20 23 27 28 26 24 23 22 22 20 18 16 14 12 13 13 14 16 18 18 19 20 22 24 27 28 29 30 29 26 23 21 21 20 20 23 25 26 26 26
21 20 21 21 22 23 22 20 18 18 20 22 23 23 23 23 24 25 25 24 24 23 23 24 26 29 29 27 25 24 24 22 19 18 17 16 14 15 14 13 14 17 18 20 21 23 24 27 29 29 26 23 21 20 20 20 20 20 20 19 20 20 20
22 22 23 24 25 25 25 23 20 19 20 22 23 23 23 24 24 24 23 23 23 23 23 24 26 27 27 26 25 25 24 22 18 17 18 18 17 16 14 13 15 18 19 21 22 23 25 27 28 24 19 17 17 18 18 19 20 20 19 16 14 14 13
24 24 24 26 27 27 27 25 22 20 20 20 22 23 23 22 22 22 22 22 22 21 21 21 22 23 25 25 25 25 24 22 20 19 19 19 18 17 16 15 17 19 20 22 23 24 24 24 22 18 15 16 17 16 16 18 19 17 14 12 11 10 9
Wind_Direction
294 294 307 329 343 338 8 15 355 349 358 5 4 353 341 345 346 337 341 344 345 356 356 343 335 332 328 331 340 341 340 346 351 354 352 348 349 346 343 353 3 0 356 353 345 335 327 314 314 321 307 301 317 317 296 281 270 258 248 247 246 242 247
282 287 298 300 304 327 1 16 1 351 357 1 356 356 350 342 340 333 330 339 343 345 342 333 332 340 335 324 332 345 346 346 347 351 352 354 354 344 336 341 357 359 358 3 357 343 335 323 316 316 313 306 299 296 289 280 269 258 248 243 240 238 244
261 271 281 275 289 322 342 354 4 359 2 359 349 352 352 342 337 334 333 336 336 334 332 329 332 340 337 328 331 346 345 340 343 345 340 349 357 347 341 342 347 352 358 358 349 343 341 330 320 319 317 316 311 307 305 291 277 265 252 244 243 238 236
257 276 286 278 291 316 320 327 357 11 0 351 345 346 345 342 338 332 331 331 329 329 327 325 332 339 335 330 334 340 336 328 333 336 326 335 348 342 346 350 341 339 351 349 342 341 341 331 320 316 314 317 311 308 314 306 291 279 267 257 254 249 239
258 270 281 281 289 288 292 314 344 10 352 347 346 336 332 340 340 328 324 324 324 327 330 327 327 334 332 329 328 327 326 321 319 321 315 326 344 341 343 348 341 327 316 325 329 334 338 333 325 317 315 314 306 304 309 306 300 290 277 268 263 260 252
267 267 274 283 288 281 281 296 309 331 354 352 335 324 327 340 338 328 321 319 325 329 330 330 331 335 332 333 333 323 323 328 322 320 321 325 340 348 341 339 345 344 331 319 314 314 323 331 331 325 320 317 312 310 310 310 313 304 287 276 270 267 263
273 268 275 285 290 296 295 287 285 287 334 353 325 323 333 344 335 331 326 313 317 326 320 321 330 333 328 333 344 336 333 341 342 345 345 340 345 346 336 337 348 352 347 335 323 312 309 315 324 325 323 319 316 316 317 318 316 312 314 311 297 286 275
277 273 278 286 290 306 310 298 289 289 306 337 318 318 326 344 339 333 333 321 315 322 318 320 327 328 327 331 341 339 337 343 345 347 347 346 349 341 336 343 344 344 350 343 333 326 316 310 309 315 320 320 319 319 318 316 313 317 324 315 302 302 289
278 277 279 285 291 306 314 308 291 292 303 318 327 326 329 351 347 326 334 335 317 314 318 325 327 323 329 333 333 336 334 330 330 333 334 340 346 342 340 347 344 342 349 341 327 320 319 319 312 303 303 313 318 317 315 317 318 322 324 310 300 305 296
279 277 275 283 290 298 307 312 295 294 306 343 352 322 318 349 352 321 331 338 328 325 322 323 328 323 323 326 327 331 332 329 330 334 335 337 340 337 334 341 342 337 337 336 325 313 307 311 318 312 299 296 306 309 310 313 311 306 311 317 316 314 308
269 269 268 278 286 291 300 310 306 302 309 344 346 297 304 346 357 312 321 330 331 335 329 328 338 334 322 318 318 320 325 327 329 334 335 333 332 330 326 327 332 333 337 338 330 321 308 296 307 320 311 297 290 298 302 304 300 295 299 309 316 321 319
272 269 265 267 274 280 289 298 304 301 303 317 336 290 316 356 3 306 318 327 325 330 333 333 337 337 325 322 324 322 322 323 324 329 330 328 326 323 320 320 323 334 347 340 327 321 318 307 301 310 315 308 292 285 292 296 295 292 295 300 305 314 316
269 266 265 268 270 275 283 288 290 287 294 308 223 251 320 355 341 304 317 324 318 325 331 327 332 339 331 324 327 323 320 319 317 320 320 321 321 316 317 321 320 332 348 335 320 319 322 319 312 305 305 308 301 291 294 295 292 290 291 296 302 308 310
263 259 262 269 270 273 280 280 278 278 286 295 271 246 323 328 300 297 308 317 320 319 321 320 324 329 319 315 318 317 316 317 314 310 308 313 319 317 319 320 314 322 339 329 321 323 324 318 317 317 313 310 304 296 294 294 294 291 288 289 298 304 304
266 264 264 269 270 274 281 277 274 277 280 284 283 275 287 285 285 298 306 311 317 310 311 317 312 308 308 313 317 315 313 314 312 308 302 306 314 314 314 317 313 310 324 330 323 321 325 326 329 333 327 320 314 304 295 295 300 301 295 292 295 296 292
275 272 266 267 270 276 280 277 276 277 275 277 280 278 274 277 287 297 296 302 315 317 313 314 311 310 311 310 310 310 309 308 307 304 300 299 302 304 307 313 311 302 309 334 327 318 325 335 334 328 318 315 317 317 308 300 300 304 303 297 295 295 295
288 285 277 269 269 273 277 277 276 272 270 275 275 271 276 298 295 290 282 295 310 319 302 303 307 310 306 305 306 304 302 303 302 301 299 297 296 295 298 307 310 302 299 323 328 320 320 319 309 302 300 296 298 298 291 287 289 297 302 298 294 296 300
286 288 286 278 270 268 274 278 274 266 269 277 272 267 265 254 274 287 288 292 301 306 297 302 314 308 297 303 311 305 298 299 302 304 302 300 301 300 297 301 306 303 299 310 325 321 308 302 296 293 296 296 290 284 281 284 290 295 299 299 297 297 298
281 279 280 280 275 271 272 273 270 267 272 275 259 262 270 253 252 276 286 287 295 301 294 297 317 316 304 306 315 316 311 299 290 301 306 300 299 300 297 299 302 303 300 302 316 316 304 302 305 305 307 308 302 294 292 297 301 301 301 301 301 301 301
277 272 270 272 271 270 265 259 262 266 269 269 250 253 267 267 262 273 278 280 281 285 287 280 288 311 307 305 311 319 324 317 294 285 296 293 291 295 295 297 301 306 304 298 301 305 305 309 310 305 305 308 308 305 303 306 308 310 311 308 304 304 305
277 279 278 274 268 267 265 262 270 270 256 254 252 252 257 256 258 267 276 287 286 282 289 285 279 291 292 295 304 311 320 323 311 286 287 292 292 293 294 295 297 301 302 299 297 299 304 311 312 306 302 300 299 300 299 301 303 303 305 306 306 309 310
281 287 289 288 280 277 276 269 268 264 251 252 261 268 268 255 251 260 268 284 292 285 285 286 282 282 285 292 303 309 313 319 315 298 287 293 291 289 293 299 301 299 299 298 299 300 304 310 314 314 311 304 300 301 301 302 304 304 302 300 300 304 307
279 285 286 288 283 277 277 270 265 265 262 262 266 273 277 271 266 266 259 259 279 284 285 287 284 284 289 294 302 307 311 316 317 301 278 279 292 300 303 305 304 300 299 300 302 303 304 309 316 320 318 312 307 305 304 306 308 310 310 307 302 299 297
272 275 276 278 277 273 271 269 269 271 271 272 271 268 269 271 270 272 269 264 273 279 280 282 283 286 293 297 301 306 310 314 317 308 287 279 295 303 302 301 299 297 298 302 303 301 302 311 319 319 314 311 308 304 304 305 308 312 315 314 308 301 295
267 268 269 272 273 271 271 270 269 271 275 281 284 279 276 275 270 268 269 268 269 275 279 284 287 288 293 297 299 303 308 314 318 316 305 288 282 287 294 298 297 296 300 303 302 301 303 312 316 313 310 310 308 302 296 299 309 316 317 315 310 303 299
264 267 270 270 267 265 268 270 268 269 274 278 280 281 283 282 276 273 272 270 269 273 279 284 286 285 288 293 297 302 309 316 320 321 314 298 283 284 298 305 305 300 299 301 303 304 303 300 302 305 308 310 308 301 293 293 305 311 312 312 308 304 302
263 266 269 270 269 267 267 268 266 266 270 272 272 275 275 275 274 277 278 275 271 272 275 278 279 281 285 290 296 303 310 317 321 322 318 304 286 280 289 301 309 307 302 301 301 302 300 295 295 301 305 307 306 302 295 288 291 299 304 307 305 302 301
264 267 269 269 269 269 269 267 265 264 265 267 270 272 271 271 273 277 280 280 278 278 280 279 277 279 283 289 296 303 310 317 320 321 317 305 302 307 297 297 304 308 307 301 296 297 299 298 301 305 307 309 308 304 296 285 280 286 294 300 301 299 298
267 269 271 271 268 268 269 268 267 267 266 267 270 271 271 270 270 272 276 277 277 281 284 283 283 282 283 287 295 302 308 313 318 321 322 314 311 310 293 290 301 305 301 294 293 298 301 302 305 308 309 312 311 307 299 286 274 273 284 294 297 296 296
268 266 266 271 272 270 269 269 269 271 272 271 271 273 274 273 270 271 271 268 271 277 279 279 281 283 283 285 292 299 304 309 314 320 319 308 302 296 279 280 294 297 293 291 293 296 298 300 303 306 310 314 315 310 302 292 277 270 276 285 287 285 287
268 266 265 271 275 273 271 272 272 273 274 274 272 271 271 269 267 268 267 266 270 275 274 273 276 280 283 285 287 292 297 302 308 313 312 302 297 296 289 285 287 289 292 293 291 291 294 296 301 307 313 317 316 311 308 302 287 274 270 273 276 276 279
266 267 268 270 272 274 274 272 271 270 270 270 269 267 266 268 271 272 267 266 271 273 271 270 273 278 282 283 283 284 288 294 300 307 307 298 290 289 290 292 292 293 294 292 289 291 295 299 305 310 313 316 316 313 309 302 288 273 266 264 266 270 276
267 266 266 266 270 274 276 275 271 267 265 265 265 264 264 267 270 271 267 266 272 275 272 267 270 276 280 282 282 280 282 288 295 300 299 294 290 290 293 296 297 295 296 297 298 300 302 305 307 309 311 314 316 316 312 303 289 276 269 265 263 266 271
264 264 263 264 268 274 279 282 277 267 262 263 264 263 263 262 262 263 263 262 265 270 269 267 270 277 279 281 281 281 282 286 291 292 291 289 285 281 282 289 294 296 299 302 301 302 303 305 305 307 310 312 314 318 318 312 303 291 279 272 269 269 270
261 261 262 264 268 271 277 282 281 272 265 263 263 263 263 263 264 267 270 269 266 266 266 265 269 274 276 278 279 280 283 288 288 285 284 284 278 272 272 279 289 293 295 296 297 299 301 303 304 308 311 312 314 318 319 317 315 308 297 286 280 278 275
260 260 262 265 267 270 275 279 281 278 272 266 264 264 264 264 264 266 270 272 273 272 270 269 269 271 273 275 276 277 281 285 285 282 283 285 282 279 277 275 277 281 284 287 292 297 301 305 308 310 310 310 313 315 316 317 317 312 305 297 290 286 284
261 260 262 265 266 268 271 273 275 277 276 271 267 265 265 266 266 266 267 269 272 275 275 272 270 271 273 275 275 276 278 280 280 280 283 287 288 286 281 275 275 279 283 287 293 297 302 310 314 311 306 307 310 313 318 323 322 313 303 301 301 300 299